Location: Appeville
(49.3218°N, 1.3427°W)
Time: 01:13:51
(UTC+00:00)

SKYMED 2 - Pass Details

Date: 08 December 2019
Orbit: 621 x 623 km, 97.9° (Epoch: 17 January)

Event Time Altitude Azimuth Distance (km) Brightness Sun altitude
Rises 05:54:12 0° 190° (S) 2,893 7.1 -17.5°
Reaches altitude 10° 05:56:34 10° 200° (SSW) 1,992 6.1 -17.1°
Maximum altitude 06:00:28 32° 264° (W) 1,072 4.3 -16.5°
Enters shadow 06:01:14 30° 285° (WNW) 1,123 4.3 -16.4°
